Regional Weather Roundup
Issued by NWS

Home | Current Version | Previous Version | Graphics & Text | Print | Product List | Glossary On
Versions: 1 2 3 4 5 6 7 8 9 10 11 12 13 14 15 16 17 18 19 20 21 22 23 24 25 26 27 28 29 30 31 32 33 34 35 36 37 38 39 40 41 42 43 44 45 46 47 48 49 50
000
ASUS45 KPSR 212300
RWRAZ

PRELIMINARY ARIZONA REGIONAL HOURLY WEATHER ROUNDUP
NATIONAL WEATHER SERVICE PHOENIX AZ
400 PM MST TUE OCT 21 2014

NOTE: FAIR INDICATES FEW OR NO CLOUDS BELOW 12,000 FEET WITH NO
SIGNIFICANT WEATHER AND/OR OBSTRUCTIONS TO VISIBILITY.

AZZ001>003-036-220000-
NORTHWEST ARIZONA

CITY           SKY/WX    TMP DP  RH WIND       PRES   REMARKS
KINGMAN        SUNNY     79  43  27 SW14      29.91F
$$

AZZ004>008-015-016-018-220000-
NORTH CENTRAL ARIZONA

CITY           SKY/WX    TMP DP  RH WIND       PRES   REMARKS
GRAND CANYON   SUNNY     66  32  28 W9G20     30.08S
PRESCOTT       PTSUNNY   73  41  31 W14       30.00F
FLAGSTAFF      SUNNY     64  35  34 SW14      30.11R
PAYSON         SUNNY     72  46  40 VRB6G12   30.04S
PAGE           SUNNY     77  35  21 NE7       29.92F
$$

AZZ009>014-017-220000-
NORTHEAST ARIZONA

CITY           SKY/WX    TMP DP  RH WIND       PRES   REMARKS
WINSLOW        NOT AVBL
SAINT JOHNS    SUNNY     69  39  33 W5        30.02F
WINDOW ROCK    PTSUNNY   65  37  35 SW9       30.08
$$

AZZ023-220000-
GREATER PHOENIX AREA

CITY           SKY/WX    TMP DP  RH WIND       PRES   REMARKS
PHOENIX        MOSUNNY   89  49  25 VRB3      29.78F
GLENDALE       MOSUNNY   88  52  29 S6        29.81F
DEER VALLEY    SUNNY     85  48  27 S8        29.80F
SCOTTSDALE     MOSUNNY   86  49  27 S5        29.82F
MESA-GATEWAY   PTSUNNY   84  48  28 VRB5      29.83F
CHANDLER       MOSUNNY   88  50  27 CALM      29.81S
$$

AZZ027-028-220000-
SOUTHWEST MARICOPA COUNTY AND PINAL COUNTY

CITY           SKY/WX    TMP DP  RH WIND       PRES   REMARKS
CASA GRANDE    PTSUNNY   84  48  28 CALM      29.82S
GILA BEND      PTCLDY    91  46  21 VRB1      29.79S
$$

AZZ503-504-507>509-220000-
SOUTHEAST ARIZONA

CITY           SKY/WX    TMP DP  RH WIND       PRES   REMARKS
TUCSON         SUNNY     85  42  22 MISG      29.88S
DAVIS-MONTHAN  MOSUNNY   83  42  23 NW5       29.87S
RYAN FIELD       N/A     86  45  23 SW6       29.87F
NOGALES        SUNNY     79  38  22 MISG      29.93F
SIERRA VISTA   MOSUNNY   73  39  29 NE3       29.99F
SAFFORD        SUNNY     78  48  34 SE6       29.91F
$$

AZZ020-021-025-026-031-220000-
SOUTHWEST ARIZONA

CITY           SKY/WX    TMP DP  RH WIND       PRES   REMARKS
YUMA           NOT AVBL
$$

CAZ031-033-041-043-047-048-061-220000-
SOUTHERN CALIFORNIA

CITY           SKY/WX    TMP DP  RH WIND       PRES   REMARKS
DOWNTOWN L.A.  SUNNY     74  60  61 VRB5      29.84S
L.A. AIRPORT   MOSUNNY   72  63  73 W13       29.85F
SAN DIEGO      MOSUNNY   74  61  63 NW9       29.85F
BURBANK        SUNNY     76  58  53 S9        29.84S
ONTARIO        PTSUNNY   81  51  35 W8        29.84S
RIVERSIDE      SUNNY     82  53  36 W6        29.83F
PALM SPRINGS   MOSUNNY   94  34  12 NW8       29.75F
EL CENTRO NAS  MOSUNNY   94  43  17 NE6       29.71F
IMPERIAL       SUNNY     93  48  21 SE5       29.71F
BLYTHE         SUNNY     92  49  22 S7        29.74F
$$

NVZ020-UTZ003-220000-
SOUTHERN NEVADA-UTAH

CITY           SKY/WX    TMP DP  RH WIND       PRES   REMARKS
LAS VEGAS      NOT AVBL
SALT LAKE CITY PTSUNNY   60  25  26 NW14      30.01S
$$

NMZ009-TXZ055-220000-
NEW MEXICO-WEST TEXAS

CITY           SKY/WX    TMP DP  RH WIND       PRES   REMARKS
ALBUQUERQUE    PTSUNNY   67  45  45 S14       30.06F
EL PASO        PTSUNNY   70  55  59 E12       29.99S
$$


........................KEY........................
SKY/WX - SKY CONDITION/WEATHER
TMP    - TEMPERATURE IN FAHRENHEIT
DP     - DEW POINT IN FAHRENHEIT
RH     - RELATIVE HUMIDITY IN PERCENT
WIND   - DIRECTION AND SPEED IN MILES PER HOUR (MPH)
VRB    - VARIABLE WIND DIRECTION
PRES   - MEAN SEA LEVEL PRESSURE IN INCHES OF MERCURY
         F - FALLING PRESSURE   R - RISING PRESSURE
         S - STEADY PRESSURE
VSB    - VISIBILITY IN MILES
HX     - HEAT INDEX IN FAHRENHEIT
WCI    - WIND CHILL INDEX IN FAHRENHEIT
TC     - TEMPERATURE IN CELSIUS WHICH IS ALSO KNOWN AS
         TEMPERATURE IN CENTIGRADE
AFB    - AIR FORCE BASE
         LUKE AFB IS LUKE AIR FORCE BASE
         DAVIS-MONTHAN IS DAVIS-MONTHAN AIR FORCE BASE
NAS    - NAVAL AIR STATION
         EL CENTRO NAS IS EL CENTRO NAVAL AIR STATION
N/A    - NOT AVAILABLE



USA.gov is the U.S. government's official web portal to all federal, state and local government web resources and services.